NOAA 16 DEB, 41245

Orbit data source: Space-Track

NOAA 16 DEB, 41245 is space debris in SSO originally from a launch on Thu, 21 Sep 2000 UTC launched from the Air Force Western Test Range (AFWTR). Debris objects in space refer to the collection of defunct objects orbiting the Earth. Examples of debris include non-operational satellites, rocket bodies, and fragments generated from explosions, collisions, or faulty payload assembly.

Loading next visibility...
Identifier
41245, 2000-055EV
Orbit
SSO
Country
Flag of USUS
Related business
Manufacturer
Unknown
Mission
Spacecraft
Bus & Motor
Unknown
Mass
Unknown
Launch date (UTC)
2000-09-21 (25 years ago)
Launch vehicle
Unknown
Launch site
Air Force Western Test Range (AFWTR)
Object type
Payload
Rocket body
Debris
Shape & HBR
Unknown shape, 0.1 m
Radar Cross Section
Small (<0.1 m²)

Expand to show TLE details & history
Last TLE update: 2 days ago

TLE from 2 days ago
0 NOAA 16 DEB
1 41245U 00055EV  25285.52634711  .00002694  00000-0  13101-2 0  9996
2 41245  98.5426 311.5028 0016666  84.9774 275.3305 14.18962985503473
Epoch: 2025-10-12T12:37Z
TLE epoch observation values (Epoch: 2025-10-12T12:37:56.390Z)
Latitude
0.00004°
Longitude
100.67562°
Altitude
830.684 km
Speed
7.438 km/s
True Right ascension
20h 46m 00s
True Declination
0° 00' 00"
Sunlit
Object was in daylight at epoch
Visualization orbit readout
Latitude
Unknown
Longitude
Unknown
Altitude
Unknown
Speed
Unknown
Apparent Right ascension
Unknown
Apparent Declination
Unknown
Sunlit
N/A
Visualization observer readout
Local Sidereal Time
01:59:20
Azimuth
Unknown
Elevation
Unknown
Doppler factor
Unknown
Orbital elements
Apogee altitude
838.021 km
Perigee altitude
814.008 km
Semi-major axis
7,204.151 km
Eccentricity
0.00167
Inclination
98.5426°
RAAN
311.5028°
Arg. of periapsis
84.9774°
True anomaly
275.14031°
Mean anomaly
275.3305°
Eccentric anomaly
275.23541°
Mean motion
3.54951 °/min
Orbital period
101.42 mins
BSTAR
0.0013101
Loading maneuver chart data...
Computing Atmospheric mass density...
Loading historical data...
Loading historical data...
Loading historical data...
Loading historical data...
Loading historical data...
Loading historical data...
Loading historical data...

Documentation

Showing up to 5 results
|